Location: Pilipovskiye Korichintsy
(49.1833°N, 27.4667°E)
Time: 21:52:17
(UTC+00:00)

H-2A R/B - Pass Details

Date: 14 July 2020
Orbit: 577 x 656 km, 98.5° (Epoch: 10 August)

Event Time Altitude Azimuth Distance (km) Brightness Sun altitude
Rises 00:27:54 0° 132° (SE) 2,923 5.4 -13.3°
Reaches altitude 10° 00:30:22 10° 120° (ESE) 2,006 4.7 -13.1°
Maximum altitude 00:34:00 26° 64° (ENE) 1,223 4.3 -12.8°
Drops below altitude 10° 00:37:34 10° 7° (N) 1,977 5.7 -12.5°
Sets 00:39:59 0° 355° (N) 2,872 6.4 -12.3°
